GW6321 Weather Reports


time (UTC)temp
F
wind
direction
speed
knots
gust
knots
rain 1hr
in
rain 24hr
in
rain mn
in
humidity
%
barometer
mb
20260507063917 60 158 3.5 4.3 0.00 0.00 0.00 80 1018.2
20260507062917 60 135 2.6 4.3 0.00 0.00 0.00 79 1018.2
20260507061918 60 135 4.3 6.1 0.00 0.00 0.00 78 1017.9
20260507060916 61 135 2.6 5.2 0.00 0.00 0.00 77 1018.0
20260507055917 61 135 1.7 2.6 0.00 0.00 0.00 76 1018.0
20260507054917 61 135 1.7 2.6 0.00 0.00 0.00 76 1018.0
20260507053917 61 135 2.6 3.5 0.00 0.00 0.00 76 1017.9
20260507052916 61 135 3.5 4.3 0.00 0.00 0.00 76 1017.9
20260507051916 61 135 2.6 4.3 0.00 0.00 0.00 76 1017.8
20260507050916 60 135 3.5 4.3 0.00 0.00 0.00 75 1017.8
20260507045917 60 135 2.6 3.5 0.00 0.00 0.00 76 1017.8
20260507044916 61 158 2.6 6.1 0.00 0.00 0.00 75 1017.9
20260507043916 61 135 3.5 6.1 0.00 0.00 0.00 73 1017.8
20260507042917 62 180 2.6 7.0 0.00 0.00 0.00 72 1017.7
20260507041916 62 158 4.3 7.8 0.00 0.00 0.00 70 1017.6
20260507040916 62 158 7.8 9.6 0.00 0.00 0.00 69 1017.5
20260507035937 63 135 5.2 7.8 0.00 0.00 0.00 69 1017.6
20260507034916 63 135 7.0 7.8 0.00 0.00 0.00 69 1017.5
20260507033916 63 135 5.2 7.8 0.00 0.00 0.00 69 1017.4
20260507032936 64 135 5.2 8.7 0.00 0.00 0.00 68 1017.2
20260507031917 64 90 2.6 5.2 0.00 0.00 0.00 67 1016.9
20260507030917 64 135 1.7 4.3 0.00 0.00 0.00 67 1016.8
20260507025916 65 113 2.6 5.2 0.00 0.00 0.00 67 1016.8
20260507024916 65 113 2.6 4.3 0.00 0.00 0.00 65 1016.7
20260507023916 66 135 1.7 3.5 0.00 0.00 0.00 64 1016.8
20260507022916 66 113 0.9 2.6 0.00 0.00 0.00 63 1016.6
20260507021916 66 135 2.6 5.2 0.00 0.00 0.00 60 1016.4
20260507020916 68 135 2.6 4.3 0.00 0.00 0.00 57 1016.3
20260507015916 68 135 0.9 2.6 0.00 0.00 0.00 55 1016.4
20260507014916 69 135 1.7 2.6 0.00 0.00 0.00 55 1016.3
20260507013936 69 135 0.9 1.7 0.00 0.00 0.00 56 1016.3
20260507012916 70 113 0.9 2.6 0.00 0.00 0.00 56 1016.1
20260507011916 70 113 1.7 3.5 0.00 0.00 0.00 56 1016.2
20260507010916 71 135 2.6 6.1 0.00 0.00 0.00 54 1016.0
20260507005936 71 203 2.6 6.1 0.00 0.00 0.00 54 1015.9
20260507004916 71 158 0.9 1.7 0.00 0.00 0.00 54 1016.0
20260507003915 72 90 1.7 2.6 0.00 0.00 0.00 53 1016.0
20260507002916 72 135 1.7 3.5 0.00 0.00 0.00 51 1016.0
20260507001915 73 248 2.6 7.0 0.00 0.00 0.00 50 1016.1
20260507000915 74 315 1.7 2.6 0.00 0.00 0.00 50 1016.0
20260506235935 74 180 2.6 7.8 0.00 0.00 0.00 51 1015.9
20260506234916 74 203 4.3 6.1 0.00 0.00 0.00 52 1016.1
20260506233916 74 293 2.6 4.3 0.00 0.00 0.00 51 1016.1
20260506232916 74 225 3.5 6.1 0.00 0.00 0.00 51 1016.0
20260506231956 75 270 5.2 9.6 0.00 0.00 0.00 50 1016.1
20260506230915 74 135 1.7 4.3 0.00 0.00 0.00 51 1016.2
20260506225918 75 180 3.5 7.8 0.00 0.00 0.00 49 1016.2
20260506224939 75 270 2.6 5.2 0.00 0.00 0.00 50 1016.3
20260506223918 75 113 2.6 4.3 0.00 0.00 0.00 49 1016.5
20260506222937 75 203 3.5 7.8 0.00 0.00 0.00 50 1016.5
20260506221917 74 270 5.2 8.7 0.00 0.00 0.00 51 1016.7
20260506220917 74 248 8.7 11.3 0.00 0.00 0.00 50 1017.0
20260506215917 74 225 3.5 7.0 0.00 0.00 0.00 51 1017.0
20260506214918 74 90 1.7 1.7 0.00 0.00 0.00 52 1017.1
20260506213917 73 270 5.2 11.3 0.00 0.00 0.00 53 1017.2
20260506212938 74 135 1.7 3.5 0.00 0.00 0.00 53 1017.3
20260506211917 73 135 2.6 4.3 0.00 0.00 0.00 53 1017.4
20260506210938 73 158 2.6 5.2 0.00 0.00 0.00 52 1017.7
20260506205917 73 135 2.6 7.0 0.00 0.00 0.00 53 1017.6
20260506204938 73 90 3.5 8.7 0.00 0.00 0.00 53 1017.6
20260506203917 72 293 2.6 6.1 0.00 0.00 0.00 53 1017.8
20260506202918 71 135 7.0 8.7 0.00 0.00 0.00 55 1017.9
20260506201918 72 135 7.0 11.3 0.00 0.00 0.00 55 1018.1
20260506200917 73 45 0.9 1.7 0.00 0.00 0.00 51 1018.3
20260506195917 72 113 0.9 1.7 0.00 0.00 0.00 53 1018.4
20260506194918 73 135 3.5 5.2 0.00 0.00 0.00 51 1018.4
20260506193938 72 113 2.6 5.2 0.00 0.00 0.00 53 1018.6
20260506192917 71 90 3.5 7.0 0.00 0.00 0.00 53 1018.6
20260506191917 70 113 2.6 3.5 0.00 0.00 0.00 54 1018.9
20260506190918 70 90 3.5 6.1 0.00 0.00 0.00 54 1019.1
20260506185917 70 135 5.2 10.4 0.00 0.00 0.00 56 1019.0
20260506184918 70 113 3.5 7.0 0.00 0.00 0.00 56 1019.2
20260506183916 68 135 2.6 6.1 0.00 0.00 0.00 58 1019.2
20260506182917 69 135 2.6 4.3 0.00 0.00 0.00 58 1019.2
20260506181917 68 113 1.7 3.5 0.00 0.00 0.00 59 1019.4
20260506180917 67 90 1.7 2.6 0.00 0.00 0.00 60 1019.5
20260506175917 67 135 2.6 6.1 0.00 0.00 0.00 61 1019.4
20260506174917 67 135 2.6 4.3 0.00 0.00 0.00 61 1019.5
20260506173937 67 90 3.5 7.0 0.00 0.00 0.00 61 1019.5
20260506172916 67 0.0 0.9 0.00 0.00 0.00 61 1019.3
20260506171916 66 45 2.6 3.5 0.00 0.00 0.00 62 1019.3
20260506170917 66 45 0.9 1.7 0.00 0.00 0.00 64 1019.3
20260506165917 65 68 1.7 2.6 0.00 0.00 0.00 64 1019.3
20260506164917 64 113 0.9 2.6 0.00 0.00 0.00 66 1019.2
20260506163917 63 113 1.7 3.5 0.00 0.00 0.00 68 1019.2
20260506162917 63 90 2.6 3.5 0.00 0.00 0.00 67 1019.4
20260506161936 63 113 0.9 2.6 0.00 0.00 0.00 67 1019.2
20260506160916 63 135 1.7 2.6 0.00 0.00 0.00 69 1019.1
20260506155916 62 90 3.5 6.1 0.00 0.00 0.00 70 1019.3
20260506154917 62 0.0 0.9 0.00 0.00 0.00 70 1019.2
20260506153916 61 135 1.7 2.6 0.00 0.00 0.00 72 1019.3
20260506152916 61 0.0 0.9 0.00 0.00 0.00 74 1019.3
20260506151916 60 135 1.7 2.6 0.00 0.00 0.00 72 1019.1
20260506150917 61 135 1.7 3.5 0.00 0.00 0.00 70 1019.1
20260506145937 59 45 0.9 1.7 0.00 0.00 0.00 74 1019.1
20260506144916 57 0.0 0.9 0.00 0.00 0.00 76 1019.2
20260506143917 57 68 0.9 1.7 0.00 0.00 0.00 76 1019.2
20260506142916 57 0.0 1.7 0.00 0.00 0.00 76 1019.1
20260506141916 56 0.0 0.9 0.00 0.00 0.00 76 1019.3
20260506140916 55 0.0 0.9 0.00 0.00 0.00 78 1018.9
20260506135916 55 90 0.9 1.7 0.00 0.00 0.00 78 1018.8
20260506134917 54 113 0.9 0.9 0.00 0.00 0.00 79 1018.8
20260506133917 53 0.0 0.0 0.00 0.00 0.00 82 1018.7
20260506132916 52 0.0 0.9 0.00 0.00 0.00 82 1018.4
20260506131917 52 0.0 0.9 0.00 0.00 0.00 82 1018.4
20260506130917 52 0.0 0.9 0.00 0.00 0.00 82 1018.5
20260506125936 52 0.0 0.0 0.00 0.00 0.00 82 1018.3
20260506124916 52 0.0 0.0 0.00 0.00 0.00 82 1018.2
20260506123916 52 113 0.9 1.7 0.00 0.00 0.00 82 1018.1
20260506122916 53 0.0 0.9 0.00 0.00 0.00 83 1018.0
20260506121916 53 225 0.9 0.9 0.00 0.00 0.00 83 1018.1
20260506120916 53 0.0 0.9 0.00 0.00 0.00 83 1018.0
20260506115916 53 225 0.9 1.7 0.00 0.00 0.00 83 1018.0
20260506114936 53 0.0 0.0 0.00 0.00 0.00 82 1017.9
20260506113915 53 0.0 0.9 0.00 0.00 0.00 81 1017.9
20260506112916 53 0.0 0.9 0.00 0.00 0.00 81 1017.8
20260506111937 53 0.0 0.9 0.00 0.00 0.00 81 1017.7
20260506110915 53 0.0 0.9 0.00 0.00 0.00 80 1017.8
20260506105916 53 225 0.9 0.9 0.00 0.00 0.00 80 1017.8
20260506104917 53 0.0 0.9 0.00 0.00 0.00 80 1017.9
20260506103918 53 0.0 0.0 0.00 0.00 0.00 79 1018.0
20260506102918 54 0.0 0.0 0.00 0.00 0.00 79 1018.0
20260506101918 54 225 0.9 1.7 0.00 0.00 0.00 78 1017.9
20260506100917 54 0.0 0.9 0.00 0.00 0.00 79 1017.8
20260506095959 55 0.0 0.0 0.00 0.00 0.00 78 1017.8
20260506094918 55 225 0.9 1.7 0.00 0.00 0.00 78 1017.8
20260506093917 55 225 1.7 2.6 0.00 0.00 0.00 78 1018.1
20260506092917 55 0.0 0.0 0.00 0.00 0.00 75 1017.9
20260506091917 55 0.0 0.9 0.00 0.00 0.00 75 1017.9
20260506090917 56 0.0 0.0 0.00 0.00 0.00 73 1018.2
20260506085918 56 0.0 1.7 0.00 0.00 0.00 73 1018.2
20260506084937 56 180 0.9 1.7 0.00 0.00 0.00 73 1018.4
20260506083917 56 203 0.9 1.7 0.00 0.00 0.00 73 1018.4
20260506082917 56 158 1.7 3.5 0.00 0.00 0.00 75 1018.5
20260506081917 56 135 0.9 2.6 0.00 0.00 0.00 75 1018.3
20260506080917 56 158 0.9 2.6 0.00 0.00 0.00 75 1018.5
20260506072917 56 135 0.9 1.7 0.00 0.00 0.00 76 1018.5
20260506071917 56 135 0.9 1.7 0.00 0.00 0.00 75 1018.4
20260506070957 57 135 0.9 1.7 0.00 0.00 0.00 75 1018.2